Location: Piotrkow Trybunalski
(51.4000°N, 19.6830°E)
Time: 07:37:48
(UTC+02:00)

STRAND 1 - Pass Details

Date: 26 February 2024
Orbit: 764 x 779 km, 98.4° (Epoch: 24 April)

Event Time Altitude Azimuth Distance (km) Brightness Sun altitude
Rises 03:25:12 0° 113° (ESE) 3,260 ? -29.7°
Reaches altitude 10° 03:28:11 10° 95° (E) 2,337 ? -29.2°
Maximum altitude 03:31:33 18° 54° (NE) 1,849 ? -28.8°
Drops below altitude 10° 03:34:56 10° 13° (NNE) 2,345 ? -28.3°
Sets 03:37:56 0° 355° (N) 3,277 ? -27.8°
